| time (UTC) | temp C | wind direction | speed KPH | gust KPH | rain 1hr cm | rain 24hr cm | rain mn cm | humidity % | barometer mb |
| 20260831030532 | 36 | 276 | 3.2 | 3.2 | 0.00 | 0.00 | 0.00 | 33 | 1006.7 |
| 20260831025525 | 36 | 267 | 1.6 | 3.2 | 0.00 | 0.00 | 0.00 | 32 | 1006.5 |
| 20260831024532 | 36 | 279 | 3.2 | 3.2 | 0.00 | 0.00 | 0.00 | 32 | 1006.3 |
| 20260831023555 | 36 | 303 | 3.2 | 3.2 | 0.00 | 0.00 | 0.00 | 32 | 1005.9 |
| 20260831022552 | 37 | 271 | 1.6 | 3.2 | 0.00 | 0.00 | 0.00 | 32 | 1005.5 |
| 20260831021531 | 37 | 259 | 1.6 | 1.6 | 0.00 | 0.00 | 0.00 | 31 | 1005.2 |
| 20260831020521 | 37 | 268 | 0.0 | 0.0 | 0.00 | 0.00 | 0.00 | 31 | 1005.1 |
| 20260831015526 | 37 | 306 | 0.0 | 0.0 | 0.00 | 0.00 | 0.00 | 30 | 1005.1 |
| 20260831014553 | 37 | 278 | 1.6 | 1.6 | 0.00 | 0.00 | 0.00 | 30 | 1005.0 |
| 20260831013533 | 37 | 283 | 1.6 | 1.6 | 0.00 | 0.00 | 0.00 | 29 | 1004.9 |
| 20260831012527 | 37 | 285 | 1.6 | 1.6 | 0.00 | 0.00 | 0.00 | 29 | 1004.9 |
| 20260831011546 | 38 | 299 | 1.6 | 1.6 | 0.00 | 0.00 | 0.00 | 29 | 1004.8 |
| 20260831010533 | 38 | 300 | 1.6 | 1.6 | 0.00 | 0.00 | 0.00 | 28 | |
| 20260831005521 | 38 | 299 | 1.6 | 1.6 | 0.00 | 0.00 | 0.00 | 27 | |
| 20260831004519 | 38 | 302 | 1.6 | 1.6 | 0.00 | 0.00 | 0.00 | 26 | |
| 20260831003531 | 38 | 274 | 1.6 | 1.6 | 0.00 | 0.00 | 0.00 | 26 | 1004.8 |
| 20260831002524 | 39 | 268 | 1.6 | 1.6 | 0.00 | 0.00 | 0.00 | 26 | 1004.9 |
| 20260831001520 | 39 | 284 | 1.6 | 1.6 | 0.00 | 0.00 | 0.00 | 26 | 1004.8 |
| 20260831000526 | 39 | 324 | 1.6 | 1.6 | 0.00 | 0.00 | 0.00 | 26 | 1004.8 |
| 20260830235521 | 40 | 230 | 1.6 | 1.6 | 0.00 | 0.00 | 0.00 | 26 | 1004.8 |
| 20260830234531 | 40 | 285 | 1.6 | 3.2 | 0.00 | 0.00 | 0.00 | 26 | 1004.8 |
| 20260830233530 | 40 | 271 | 3.2 | 3.2 | 0.00 | 0.00 | 0.00 | 26 | 1004.9 |
| 20260830232528 | 40 | 249 | 3.2 | 3.2 | 0.00 | 0.00 | 0.00 | 27 | 1005.0 |
| 20260830231523 | 40 | 323 | 1.6 | 1.6 | 0.00 | 0.00 | 0.00 | 27 | 1005.1 |
| 20260830230531 | 40 | 327 | 1.6 | 1.6 | 0.00 | 0.00 | 0.00 | 26 | 1005.3 |
| 20260830225556 | 40 | 327 | 3.2 | 3.2 | 0.00 | 0.00 | 0.00 | 27 | 1005.5 |
| 20260830224530 | 40 | 319 | 1.6 | 1.6 | 0.00 | 0.00 | 0.00 | 27 | 1005.6 |
| 20260830223524 | 40 | 316 | 3.2 | 3.2 | 0.00 | 0.00 | 0.00 | 27 | 1005.9 |
| 20260830222520 | 40 | 270 | 1.6 | 3.2 | 0.00 | 0.00 | 0.00 | 27 | 1006.1 |
| 20260830221546 | 40 | 237 | 3.2 | 3.2 | 0.00 | 0.00 | 0.00 | 27 | 1006.3 |
| 20260830220552 | 40 | 313 | 1.6 | 3.2 | 0.00 | 0.00 | 0.00 | 27 | 1006.4 |
| 20260830215530 | 40 | 11 | 1.6 | 1.6 | 0.00 | 0.00 | 0.00 | 27 | 1006.6 |
| 20260830214520 | 40 | 237 | 3.2 | 3.2 | 0.00 | 0.00 | 0.00 | 27 | 1006.7 |
| 20260830213524 | 40 | 238 | 3.2 | 3.2 | 0.00 | 0.00 | 0.00 | 27 | 1006.8 |
| 20260830212523 | 40 | 317 | 1.6 | 1.6 | 0.00 | 0.00 | 0.00 | 27 | 1006.9 |
| 20260830211519 | 40 | 219 | 1.6 | 1.6 | 0.00 | 0.00 | 0.00 | 27 | 1007.1 |
| 20260830210529 | 40 | 255 | 1.6 | 3.2 | 0.00 | 0.00 | 0.00 | 27 | 1007.3 |
| 20260830205530 | 40 | 16 | 3.2 | 3.2 | 0.00 | 0.00 | 0.00 | 28 | 1007.6 |
| 20260830204532 | 40 | 312 | 1.6 | 1.6 | 0.00 | 0.00 | 0.00 | 28 | 1007.8 |
| 20260830203521 | 40 | 212 | 1.6 | 1.6 | 0.00 | 0.00 | 0.00 | 28 | 1008.0 |
| 20260830202527 | 40 | 289 | 3.2 | 3.2 | 0.00 | 0.00 | 0.00 | 28 | 1008.2 |
| 20260830201533 | 40 | 291 | 3.2 | 3.2 | 0.00 | 0.00 | 0.00 | 28 | 1008.2 |
| 20260830200529 | 40 | 274 | 1.6 | 3.2 | 0.00 | 0.00 | 0.00 | 28 | 1008.3 |
| 20260830195530 | 39 | 250 | 3.2 | 3.2 | 0.00 | 0.00 | 0.00 | 28 | 1008.5 |
| 20260830194529 | 40 | 210 | 1.6 | 1.6 | 0.00 | 0.00 | 0.00 | 28 | 1008.6 |
| 20260830193523 | 39 | 293 | 1.6 | 3.2 | 0.00 | 0.00 | 0.00 | 29 | 1008.8 |
| 20260830192549 | 39 | 21 | 1.6 | 1.6 | 0.00 | 0.00 | 0.00 | 29 | 1009.0 |
| 20260830191549 | 39 | 66 | 1.6 | 1.6 | 0.00 | 0.00 | 0.00 | 29 | 1009.2 |
| 20260830190527 | 39 | 250 | 1.6 | 1.6 | 0.00 | 0.00 | 0.00 | 29 | 1009.3 |
| 20260830185528 | 39 | 317 | 1.6 | 1.6 | 0.00 | 0.00 | 0.00 | 30 | 1009.4 |
| 20260830184520 | 38 | 305 | 1.6 | 1.6 | 0.00 | 0.00 | 0.00 | 30 | 1009.5 |
| 20260830183552 | 38 | 309 | 3.2 | 3.2 | 0.00 | 0.00 | 0.00 | 31 | 1009.6 |
| 20260830182552 | 38 | 169 | 1.6 | 1.6 | 0.00 | 0.00 | 0.00 | 31 | 1009.8 |
| 20260830181522 | 37 | 174 | 1.6 | 1.6 | 0.00 | 0.00 | 0.00 | 32 | 1009.9 |
| 20260830180525 | 37 | 231 | 1.6 | 3.2 | 0.00 | 0.00 | 0.00 | 31 | 1010.0 |
| 20260830175524 | 37 | 294 | 1.6 | 3.2 | 0.00 | 0.00 | 0.00 | 32 | 1010.0 |
| 20260830174524 | 37 | 231 | 1.6 | 1.6 | 0.00 | 0.00 | 0.00 | 33 | 1010.1 |
| 20260830173529 | 36 | 319 | 1.6 | 1.6 | 0.00 | 0.00 | 0.00 | 34 | 1010.2 |
| 20260830172519 | 36 | 171 | 1.6 | 1.6 | 0.00 | 0.00 | 0.00 | 36 | 1010.4 |
| 20260830171601 | 36 | 187 | 1.6 | 1.6 | 0.00 | 0.00 | 0.00 | 36 | 1010.4 |
| 20260830170528 | 35 | 172 | 1.6 | 1.6 | 0.00 | 0.00 | 0.00 | 36 | 1010.4 |
| 20260830165601 | 35 | 184 | 1.6 | 1.6 | 0.00 | 0.00 | 0.00 | 37 | 1010.4 |
| 20260830164529 | 35 | 84 | 3.2 | 3.2 | 0.00 | 0.00 | 0.00 | 37 | 1010.4 |
| 20260830163528 | 35 | 205 | 3.2 | 3.2 | 0.00 | 0.00 | 0.00 | 38 | 1010.5 |
| 20260830162528 | 35 | 213 | 3.2 | 3.2 | 0.00 | 0.00 | 0.00 | 38 | 1010.6 |
| 20260830161528 | 34 | 200 | 1.6 | 3.2 | 0.00 | 0.00 | 0.00 | 39 | 1010.6 |
| 20260830160522 | 33 | 171 | 1.6 | 1.6 | 0.00 | 0.00 | 0.00 | 40 | 1010.7 |
| 20260830155523 | 33 | 128 | 1.6 | 1.6 | 0.00 | 0.00 | 0.00 | 41 | 1010.7 |
| 20260830154530 | 33 | 131 | 1.6 | 1.6 | 0.00 | 0.00 | 0.00 | 41 | 1010.6 |
| 20260830153559 | 32 | 203 | 1.6 | 3.2 | 0.00 | 0.00 | 0.00 | 42 | 1010.6 |
| 20260830152527 | 32 | 146 | 1.6 | 1.6 | 0.00 | 0.00 | 0.00 | 43 | 1010.6 |
| 20260830151548 | 32 | 170 | 1.6 | 1.6 | 0.00 | 0.00 | 0.00 | 44 | 1010.5 |
| 20260830150541 | 31 | 213 | 1.6 | 1.6 | 0.00 | 0.00 | 0.00 | 45 | 1010.5 |
| 20260830145530 | 31 | 208 | 1.6 | 1.6 | 0.00 | 0.00 | 0.00 | 46 | 1010.6 |
| 20260830144528 | 31 | 176 | 1.6 | 1.6 | 0.00 | 0.00 | 0.00 | 46 | 1010.6 |
| 20260830143528 | 30 | 232 | 1.6 | 3.2 | 0.00 | 0.00 | 0.00 | 46 | 1010.6 |
| 20260830142524 | 30 | 217 | 1.6 | 1.6 | 0.00 | 0.00 | 0.00 | 46 | 1010.8 |
| 20260830141524 | 30 | 180 | 1.6 | 1.6 | 0.00 | 0.00 | 0.00 | 46 | 1010.7 |
| 20260830140520 | 30 | 188 | 3.2 | 3.2 | 0.00 | 0.00 | 0.00 | 46 | 1010.8 |
| 20260830135521 | 30 | 189 | 1.6 | 3.2 | 0.00 | 0.00 | 0.00 | 46 | 1010.7 |
| 20260830134548 | 30 | 187 | 1.6 | 1.6 | 0.00 | 0.00 | 0.00 | 45 | 1010.6 |
| 20260830133527 | 30 | 105 | 1.6 | 1.6 | 0.00 | 0.00 | 0.00 | 45 | 1010.7 |
| 20260830132528 | 30 | 137 | 3.2 | 3.2 | 0.00 | 0.00 | 0.00 | 45 | 1010.6 |
| 20260830131521 | 30 | 116 | 3.2 | 3.2 | 0.00 | 0.00 | 0.00 | 45 | 1010.4 |
| 20260830130548 | 30 | 159 | 1.6 | 1.6 | 0.00 | 0.00 | 0.00 | 45 | 1010.3 |
| 20260830125527 | 30 | 235 | 3.2 | 3.2 | 0.00 | 0.00 | 0.00 | 45 | 1010.3 |
| 20260830124527 | 30 | 179 | 3.2 | 3.2 | 0.00 | 0.00 | 0.00 | 44 | 1010.2 |
| 20260830123524 | 30 | 189 | 3.2 | 3.2 | 0.00 | 0.00 | 0.00 | 44 | 1010.0 |
| 20260830122547 | 30 | 208 | 3.2 | 3.2 | 0.00 | 0.00 | 0.00 | 43 | 1009.9 |
| 20260830121526 | 30 | 166 | 3.2 | 3.2 | 0.00 | 0.00 | 0.00 | 43 | 1009.8 |
| 20260830120526 | 31 | 186 | 3.2 | 3.2 | 0.00 | 0.00 | 0.00 | 42 | 1009.8 |
| 20260830115607 | 31 | 175 | 3.2 | 3.2 | 0.00 | 0.00 | 0.00 | 42 | 1009.9 |
| 20260830114520 | 31 | 317 | 1.6 | 1.6 | 0.00 | 0.00 | 0.00 | 41 | 1010.0 |
| 20260830113527 | 31 | 197 | 3.2 | 3.2 | 0.00 | 0.00 | 0.00 | 41 | 1009.3 |
| 20260830112521 | 31 | 155 | 4.8 | 4.8 | 0.00 | 0.00 | 0.00 | 41 | 1008.7 |
| 20260830111528 | 31 | 230 | 4.8 | 4.8 | 0.00 | 0.00 | 0.00 | 41 | 1008.4 |
| 20260830110547 | 31 | 211 | 4.8 | 4.8 | 0.00 | 0.00 | 0.00 | 41 | 1008.7 |
| 20260830105527 | 31 | 176 | 4.8 | 4.8 | 0.00 | 0.00 | 0.00 | 40 | 1008.7 |
| 20260830104522 | 31 | 191 | 4.8 | 4.8 | 0.00 | 0.00 | 0.00 | 41 | 1008.7 |
| 20260830103520 | 31 | 214 | 3.2 | 3.2 | 0.00 | 0.00 | 0.00 | 41 | 1008.6 |
| 20260830102526 | 31 | 172 | 1.6 | 1.6 | 0.00 | 0.00 | 0.00 | 41 | 1008.5 |
| 20260830101527 | 31 | 205 | 3.2 | 3.2 | 0.00 | 0.00 | 0.00 | 41 | 1008.3 |
| 20260830100526 | 31 | 163 | 3.2 | 3.2 | 0.00 | 0.00 | 0.00 | 41 | 1008.2 |
| 20260830095546 | 31 | 123 | 3.2 | 3.2 | 0.00 | 0.00 | 0.00 | 41 | 1008.1 |
| 20260830094526 | 31 | 152 | 3.2 | 3.2 | 0.00 | 0.00 | 0.00 | 42 | 1008.0 |
| 20260830093521 | 31 | 133 | 1.6 | 1.6 | 0.00 | 0.00 | 0.00 | 42 | 1008.0 |
| 20260830092528 | 31 | 171 | 0.0 | 0.0 | 0.00 | 0.00 | 0.00 | 43 | 1008.1 |
| 20260830091546 | 31 | 260 | 0.0 | 0.0 | 0.00 | 0.00 | 0.00 | 42 | 1008.0 |
| 20260830090526 | 31 | 0.0 | 0.0 | 0.00 | 0.00 | 0.00 | 42 | 1008.0 | |
| 20260830085526 | 31 | 0.0 | 0.0 | 0.00 | 0.00 | 0.00 | 42 | 1008.1 | |
| 20260830084526 | 31 | 0.0 | 0.0 | 0.00 | 0.00 | 0.00 | 42 | 1008.3 | |
| 20260830083525 | 31 | 0.0 | 0.0 | 0.00 | 0.00 | 0.00 | 41 | 1008.3 | |
| 20260830082525 | 31 | 0.0 | 0.0 | 0.00 | 0.00 | 0.00 | 41 | 1008.3 | |
| 20260830081525 | 31 | 0.0 | 0.0 | 0.00 | 0.00 | 0.00 | 41 | 1008.2 | |
| 20260830080525 | 31 | 277 | 0.0 | 1.6 | 0.00 | 0.00 | 0.00 | 41 | 1008.3 |
| 20260830075525 | 31 | 14 | 0.0 | 1.6 | 0.00 | 0.00 | 0.00 | 41 | 1008.1 |
| 20260830074521 | 32 | 312 | 0.0 | 0.0 | 0.00 | 0.00 | 0.00 | 41 | 1008.3 |
| 20260830073527 | 32 | 358 | 1.6 | 1.6 | 0.00 | 0.00 | 0.00 | 41 | 1008.4 |
| 20260830072519 | 32 | 299 | 3.2 | 3.2 | 0.00 | 0.00 | 0.00 | 41 | 1007.9 |
| 20260830071525 | 32 | 327 | 1.6 | 1.6 | 0.00 | 0.00 | 0.00 | 40 | 1008.0 |
| 20260830070542 | 32 | 238 | 0.0 | 1.6 | 0.00 | 0.00 | 0.00 | 41 | 1007.9 |
| 20260830065519 | 32 | 294 | 1.6 | 1.6 | 0.00 | 0.00 | 0.00 | 41 | 1007.8 |
| 20260830064525 | 32 | 249 | 1.6 | 3.2 | 0.00 | 0.00 | 0.00 | 41 | 1007.8 |
| 20260830063545 | 32 | 17 | 0.0 | 0.0 | 0.00 | 0.00 | 0.00 | 41 | 1007.5 |
| 20260830062525 | 32 | 226 | 0.0 | 0.0 | 0.00 | 0.00 | 0.00 | 42 | 1007.8 |
| 20260830061525 | 32 | 338 | 0.0 | 0.0 | 0.00 | 0.00 | 0.00 | 42 | 1007.3 |
| 20260830060524 | 32 | 351 | 0.0 | 0.0 | 0.00 | 0.00 | 0.00 | 41 | 1007.4 |
| 20260830055521 | 32 | 31 | 1.6 | 1.6 | 0.00 | 0.00 | 0.00 | 42 | 1007.5 |
| 20260830054528 | 32 | 50 | 1.6 | 3.2 | 0.00 | 0.00 | 0.00 | 42 | 1007.5 |
| 20260830053524 | 32 | 40 | 1.6 | 3.2 | 0.00 | 0.00 | 0.00 | 42 | 1008.0 |
| 20260830052525 | 32 | 25 | 3.2 | 3.2 | 0.00 | 0.00 | 0.00 | 42 | 1008.5 |
| 20260830051524 | 32 | 53 | 3.2 | 3.2 | 0.00 | 0.00 | 0.00 | 42 | 1008.9 |
| 20260830050524 | 32 | 357 | 1.6 | 1.6 | 0.00 | 0.00 | 0.00 | 42 | 1009.3 |
| 20260830045526 | 32 | 354 | 3.2 | 3.2 | 0.00 | 0.00 | 0.00 | 42 | 1009.4 |
| 20260830044525 | 32 | 12 | 3.2 | 3.2 | 0.00 | 0.00 | 0.00 | 42 | 1009.6 |
| 20260830043525 | 32 | 41 | 1.6 | 3.2 | 0.00 | 0.00 | 0.00 | 41 | 1009.7 |
| 20260830042524 | 33 | 26 | 1.6 | 1.6 | 0.00 | 0.00 | 0.00 | 39 | 1009.9 |
| 20260830041524 | 33 | 309 | 1.6 | 1.6 | 0.00 | 0.00 | 0.00 | 39 | 1010.2 |
| 20260830040525 | 33 | 309 | 1.6 | 1.6 | 0.00 | 0.00 | 0.00 | 37 | 1010.1 |
| 20260830035528 | 33 | 288 | 1.6 | 1.6 | 0.00 | 0.00 | 0.00 | 38 | 1009.8 |
| 20260830034525 | 34 | 292 | 1.6 | 1.6 | 0.00 | 0.00 | 0.00 | 37 | 1009.6 |
| 20260830033524 | 34 | 310 | 1.6 | 1.6 | 0.00 | 0.00 | 0.00 | 37 | 1009.2 |
| 20260830032524 | 35 | 289 | 1.6 | 1.6 | 0.00 | 0.00 | 0.00 | 35 | 1009.0 |
| 20260830031519 | 35 | 258 | 0.0 | 1.6 | 0.00 | 0.00 | 0.00 | 34 | 1008.5 |